HORIS-1

operational
NORAD ID: 64531 Int'l Des: NNA 2025-135 Owner: ACMEO Country: US
LEOCIRCULARRETROGRADESSO

关于 HORIS-1

正在加载描述...

实时位置

正在加载3D地球...

即将过境

高度历史

Altitude vs Time

uPlot chart will show altitude changes over time

两行轨道根数

1 64531U 25135D 26062.09710727 .00015708 00000-0 65728-3 0 9996
2 64531 97.4592 178.5894 0005170 168.7812 191.3541 15.23648216 38750
Epoch: Mar 3, 2026 • Age: 24 hours

当前状态

高度 508.7 km
速度 7.61 km/s
星下点 -41.36°S, 165.71°W
发射日期 Jun 23, 2025
运行时间 0.6 years
类型 other

技术详情

分类 Payload
质量 1.00 kg
干质量 1.00 kg
总质量 1.00 kg
长度 0.10 m
直径 0.10 m
跨度 0.10 m
形状 Box
制造商 ACMEO
平台类型 Cubesat 1U
阶段状态 In Orbit
所有者/国家 ACMEO/US

大型星座

Loading constellations...